| time (UTC) | temp C | wind direction | speed KPH | gust KPH | rain 1hr cm | rain 24hr cm | rain mn cm | humidity % | barometer mb |
| 20260508100032 | 16 | 283 | 3.2 | 16.1 | 0.00 | 1.37 | 0.00 | 58 | 1016.9 |
| 20260508094552 | 16 | 265 | 6.4 | 16.1 | 0.00 | 1.37 | 0.00 | 58 | 1016.9 |
| 20260508093055 | 16 | 294 | 4.8 | 14.5 | 0.00 | 1.37 | 0.00 | 59 | 1016.8 |
| 20260508091548 | 16 | 287 | 8.0 | 12.9 | 0.00 | 1.37 | 0.00 | 59 | 1016.7 |
| 20260508090049 | 16 | 244 | 3.2 | 6.4 | 0.00 | 1.37 | 0.00 | 59 | 1016.5 |
| 20260508084543 | 16 | 265 | 4.8 | 9.7 | 0.00 | 1.37 | 0.00 | 59 | 1016.5 |
| 20260508083042 | 16 | 285 | 1.6 | 6.4 | 0.00 | 1.37 | 0.00 | 59 | 1016.2 |
| 20260508081540 | 16 | 263 | 0.0 | 6.4 | 0.00 | 1.37 | 0.00 | 59 | 1016.2 |
| 20260508080038 | 16 | 260 | 0.0 | 9.7 | 0.00 | 1.37 | 0.00 | 59 | 1016.4 |
| 20260508074535 | 16 | 267 | 4.8 | 9.7 | 0.00 | 1.37 | 0.00 | 60 | 1016.2 |
| 20260508073034 | 16 | 338 | 1.6 | 4.8 | 0.00 | 1.37 | 0.00 | 60 | 1015.6 |
| 20260508071531 | 15 | 341 | 3.2 | 4.8 | 0.00 | 1.37 | 0.00 | 60 | 1015.2 |
| 20260508070028 | 15 | 343 | 1.6 | 6.4 | 0.00 | 1.37 | 0.00 | 61 | 1015.2 |
| 20260508064548 | 15 | 233 | 1.6 | 6.4 | 0.00 | 1.37 | 0.00 | 61 | 1015.4 |
| 20260508063027 | 14 | 304 | 3.2 | 11.3 | 0.00 | 1.37 | 0.00 | 61 | 1015.2 |
| 20260508061519 | 14 | 301 | 1.6 | 6.4 | 0.00 | 1.37 | 0.00 | 61 | 1014.9 |
| 20260508060018 | 13 | 298 | 3.2 | 6.4 | 0.00 | 1.37 | 0.00 | 61 | 1015.0 |
| 20260508054527 | 13 | 292 | 3.2 | 6.4 | 0.00 | 1.37 | 0.00 | 61 | 1014.7 |
| 20260508053018 | 13 | 312 | 4.8 | 8.0 | 0.00 | 1.37 | 0.00 | 61 | 1014.7 |
| 20260508051523 | 13 | 299 | 4.8 | 12.9 | 0.00 | 1.37 | 0.00 | 61 | 1014.6 |
| 20260508050018 | 13 | 302 | 6.4 | 12.9 | 0.00 | 1.37 | 0.00 | 62 | 1014.5 |
| 20260508044511 | 13 | 297 | 8.0 | 12.9 | 0.00 | 1.37 | 0.00 | 64 | 1014.2 |
| 20260508043013 | 13 | 289 | 8.0 | 12.9 | 0.00 | 1.37 | 0.00 | 64 | 1014.2 |
| 20260508041510 | 13 | 291 | 8.0 | 12.9 | 0.00 | 1.37 | 0.00 | 64 | 1014.3 |
| 20260508040007 | 13 | 280 | 4.8 | 9.7 | 0.00 | 1.37 | 0.00 | 65 | 1014.3 |
| 20260508034519 | 13 | 359 | 3.2 | 4.8 | 0.00 | 1.37 | 0.00 | 65 | 1014.0 |
| 20260508033005 | 13 | 313 | 4.8 | 8.0 | 0.00 | 1.37 | 0.00 | 65 | 1014.0 |
| 20260508031504 | 13 | 310 | 3.2 | 8.0 | 0.00 | 1.37 | 0.00 | 65 | 1014.1 |
| 20260508030107 | 13 | 295 | 4.8 | 8.0 | 0.00 | 1.37 | 0.00 | 65 | 1014.6 |
| 20260508024600 | 13 | 254 | 3.2 | 9.7 | 0.00 | 1.37 | 0.00 | 65 | 1014.8 |
| 20260508023059 | 13 | 359 | 4.8 | 9.7 | 0.00 | 1.37 | 0.00 | 66 | 1014.5 |
| 20260508021605 | 13 | 312 | 8.0 | 12.9 | 0.00 | 1.37 | 0.00 | 66 | 1014.5 |
| 20260508020055 | 13 | 305 | 4.8 | 11.3 | 0.00 | 1.37 | 0.00 | 66 | 1014.8 |
| 20260508014554 | 13 | 359 | 6.4 | 8.0 | 0.00 | 1.37 | 0.00 | 66 | 1014.7 |
| 20260508013053 | 13 | 359 | 4.8 | 9.7 | 0.00 | 1.37 | 0.00 | 66 | 1014.7 |
| 20260508011556 | 13 | 325 | 6.4 | 12.9 | 0.00 | 1.37 | 0.00 | 67 | 1014.8 |
| 20260508010026 | 13 | 316 | 8.0 | 12.9 | 0.00 | 1.37 | 0.00 | 67 | 1015.1 |
| 20260508004531 | 13 | 359 | 4.8 | 8.0 | 0.00 | 1.37 | 0.00 | 67 | 1015.3 |
| 20260508003012 | 13 | 319 | 6.4 | 12.9 | 0.00 | 1.37 | 0.00 | 67 | 1015.6 |
| 20260508001510 | 13 | 321 | 6.4 | 9.7 | 0.00 | 1.37 | 0.00 | 67 | 1015.7 |
| 20260508000008 | 13 | 359 | 6.4 | 9.7 | 0.00 | 1.37 | 0.00 | 67 | 1016.0 |
| 20260507234508 | 13 | 319 | 6.4 | 9.7 | 0.00 | 1.37 | 1.37 | 67 | 1016.0 |
| 20260507233001 | 13 | 335 | 6.4 | 9.7 | 0.00 | 1.37 | 1.37 | 67 | 1016.1 |
| 20260507231615 | 13 | 305 | 6.4 | 8.0 | 0.00 | 1.37 | 1.37 | 66 | 1016.2 |
| 20260507224559 | 14 | 320 | 3.2 | 6.4 | 0.00 | 1.37 | 1.37 | 66 | 1016.4 |
| 20260507223056 | 13 | 328 | 6.4 | 9.7 | 0.00 | 1.37 | 1.37 | 66 | 1016.3 |
| 20260507221600 | 14 | 310 | 6.4 | 12.9 | 0.00 | 1.37 | 1.37 | 65 | 1016.2 |
| 20260507220053 | 14 | 307 | 6.4 | 9.7 | 0.00 | 1.37 | 1.37 | 65 | 1016.1 |
| 20260507214551 | 14 | 332 | 4.8 | 9.7 | 0.00 | 1.37 | 1.37 | 65 | 1015.8 |
| 20260507213019 | 14 | 330 | 4.8 | 12.9 | 0.00 | 1.37 | 1.37 | 65 | 1015.7 |
| 20260507211520 | 14 | 354 | 9.7 | 14.5 | 0.00 | 1.37 | 1.37 | 64 | 1015.8 |
| 20260507210016 | 15 | 354 | 6.4 | 12.9 | 0.00 | 1.37 | 1.37 | 64 | 1015.5 |
| 20260507204515 | 15 | 15 | 9.7 | 16.1 | 0.00 | 1.37 | 1.37 | 64 | 1015.5 |
| 20260507203015 | 15 | 32 | 9.7 | 19.3 | 0.00 | 1.37 | 1.37 | 64 | 1015.6 |
| 20260507201516 | 15 | 13 | 9.7 | 17.7 | 0.00 | 1.37 | 1.37 | 64 | 1015.5 |
| 20260507200009 | 15 | 17 | 9.7 | 16.1 | 0.00 | 1.37 | 1.37 | 64 | 1015.4 |
| 20260507194506 | 15 | 33 | 8.0 | 14.5 | 0.00 | 1.37 | 1.37 | 65 | 1015.1 |
| 20260507193005 | 15 | 13 | 8.0 | 16.1 | 0.00 | 1.37 | 1.37 | 65 | 1015.0 |
| 20260507191507 | 15 | 19 | 11.3 | 19.3 | 0.00 | 1.37 | 1.37 | 65 | 1014.7 |
| 20260507190003 | 15 | 343 | 8.0 | 22.5 | 0.00 | 1.37 | 1.37 | 65 | 1014.3 |
| 20260507184501 | 15 | 23 | 17.7 | 29.0 | 0.00 | 1.37 | 1.37 | 64 | 1014.2 |
| 20260507183058 | 15 | 27 | 14.5 | 24.1 | 0.00 | 1.37 | 1.37 | 65 | 1014.0 |
| 20260507181559 | 16 | 39 | 14.5 | 19.3 | 0.00 | 1.37 | 1.37 | 65 | 1013.8 |
| 20260507180028 | 16 | 12 | 14.5 | 19.3 | 0.03 | 1.37 | 1.37 | 64 | 1013.7 |
| 20260507174543 | 16 | 343 | 8.0 | 14.5 | 0.03 | 1.37 | 1.37 | 64 | 1013.7 |
| 20260507173028 | 16 | 343 | 4.8 | 9.7 | 0.03 | 1.37 | 1.37 | 64 | 1013.8 |
| 20260507171535 | 16 | 324 | 4.8 | 16.1 | 0.03 | 1.37 | 1.37 | 63 | 1013.6 |
| 20260507170026 | 16 | 4 | 6.4 | 12.9 | 0.00 | 1.37 | 1.37 | 62 | 1013.7 |
| 20260507164525 | 16 | 12 | 8.0 | 11.3 | 0.00 | 1.37 | 1.37 | 62 | 1013.6 |
| 20260507163023 | 17 | 37 | 8.0 | 14.5 | 0.00 | 1.37 | 1.37 | 61 | 1013.3 |
| 20260507161522 | 16 | 12 | 11.3 | 17.7 | 0.00 | 1.37 | 1.37 | 61 | 1013.4 |
| 20260507160021 | 17 | 48 | 8.0 | 12.9 | 0.00 | 1.37 | 1.37 | 63 | 1013.1 |
| 20260507154521 | 17 | 62 | 6.4 | 8.0 | 0.00 | 1.37 | 1.37 | 63 | 1012.9 |
| 20260507153022 | 17 | 21 | 1.6 | 8.0 | 0.00 | 1.37 | 1.37 | 63 | 1013.0 |
| 20260507151517 | 17 | 88 | 3.2 | 6.4 | 0.00 | 1.37 | 1.37 | 62 | 1013.0 |
| 20260507150017 | 17 | 80 | 6.4 | 16.1 | 0.00 | 1.37 | 1.37 | 61 | 1013.1 |
| 20260507144516 | 17 | 70 | 8.0 | 11.3 | 0.00 | 1.37 | 1.37 | 61 | 1013.0 |
| 20260507143015 | 17 | 15 | 8.0 | 16.1 | 0.00 | 1.37 | 1.37 | 61 | 1012.9 |
| 20260507141512 | 16 | 18 | 9.7 | 17.7 | 0.00 | 1.37 | 1.37 | 61 | 1012.9 |
| 20260507140027 | 16 | 43 | 8.0 | 14.5 | 0.05 | 1.37 | 1.37 | 62 | 1012.9 |
| 20260507134512 | 15 | 354 | 8.0 | 20.9 | 0.97 | 1.37 | 1.37 | 63 | 1012.9 |
| 20260507133011 | 15 | 41 | 14.5 | 20.9 | 0.99 | 1.37 | 1.37 | 64 | 1013.4 |
| 20260507131507 | 15 | 32 | 3.2 | 9.7 | 1.09 | 1.37 | 1.37 | 65 | 1013.7 |
| 20260507130006 | 15 | 37 | 4.8 | 30.6 | 1.09 | 1.32 | 1.32 | 65 | 1013.9 |
| 20260507124503 | 15 | 247 | 8.0 | 14.5 | 0.33 | 0.41 | 0.41 | 65 | 1013.6 |
| 20260507123003 | 15 | 292 | 8.0 | 14.5 | 0.33 | 0.36 | 0.36 | 63 | 1013.9 |
| 20260507121532 | 15 | 210 | 9.7 | 17.7 | 0.28 | 0.28 | 0.28 | 63 | 1013.9 |
| 20260507120031 | 15 | 177 | 8.0 | 16.1 | 0.23 | 0.23 | 0.23 | 62 | 1013.8 |
| 20260507114553 | 17 | 140 | 8.0 | 17.7 | 0.08 | 0.08 | 0.08 | 62 | 1014.5 |
| 20260507113125 | 17 | 75 | 19.3 | 33.8 | 0.03 | 0.03 | 0.03 | 61 | 1014.4 |
| 20260507111550 | 17 | 37 | 22.5 | 33.8 | 0.00 | 0.00 | 0.00 | 61 | 1014.0 |
| 20260507110048 | 17 | 43 | 22.5 | 32.2 | 0.00 | 0.00 | 0.00 | 61 | 1014.2 |
| 20260507104558 | 17 | 32 | 20.9 | 35.4 | 0.00 | 0.00 | 0.00 | 62 | 1014.1 |
| 20260507103047 | 17 | 63 | 19.3 | 29.0 | 0.00 | 0.00 | 0.00 | 62 | 1014.3 |
| 20260507101544 | 17 | 41 | 19.3 | 29.0 | 0.00 | 0.00 | 0.00 | 63 | 1014.4 |